Weather in Lahinch

Ireland     52°55′54″N   9°20′25″W
temp.,
°C
wind,
m/s
gust,
m/s
humid.,
%
clouds,
%
prec.,
mm/h
press.,
hPa
HPBL,
m
24 september, fri
fri2401:00+16sw61199100 0.8 1017406
04:00+16wsw61199100 0.8 1016490
07:00+15wsw71399100 1.6 1016513
10:00+16wsw61198100 0.1 1016553
13:00+16wsw71195100 0.3 1016491
16:00+16wsw61095100 0.1 1015460
19:00+15wsw5898100 0.1 1015412
22:00+15wsw4799100 0.1 1016375
25 september, sat
sat2501:00+15sw5899100 0.2 1015405
04:00+15sw4898100 0.1 1013397
07:00+15ssw4798100 0.1 1012393
10:00+16s3692100 0.1 1012419
13:00+17ssw468369 0.1 1010664
16:00+16wsw4787100 0.1 1009310
19:00+15ssw5988100 0.1 1008356
22:00+15sse598799 0.1 1006467
26 september, sun
sun2601:00+15sse51089100 0.1 1005475
04:00+14sse4119499 0.1 1002390
07:00+15s7147799 0.1 1001609
10:00+16sse71377100 0.0 999958
13:00+12nw6997100 9.1 999422
16:00+11wnw71089100 3.6 1001661
19:00+11w697417 3.6 1001477
22:00+10wsw610743 0.8 1003530
27 september, mon
mon2701:00+10sw8127942 2.2 1004663
04:00+10wsw8127712 2.3 1005731
07:00+11wsw81180100 4.9 1006596
10:00+11wsw8127613 2.2 10091116
13:00+12wsw10137611 3.2 10111423
16:00+13wsw10147235 0.8 10121487
19:00+11sw81278100 1.6 1013760
22:00+10ssw81285100 1.6 1013809
28 september, tue
tue2801:00+10s51091100 3.8 1012479
04:00+10se41198100 4.1 1007635
07:00+9nnw91194100 11.0 1004662
10:00+9nw71184100 3.9 1009997
13:00+11wnw1013756 4.7 10111482
16:00+11nw912695 1.0 10141592
19:00+10wnw8117120 1.8 1017595
22:00+9wnw7117788 1.4 1020539